TimePST,TemperatureF,Dew PointF,Humidity,Sea Level PressureIn,VisibilityMPH,Wind Direction,Wind SpeedMPH,Gust SpeedMPH,PrecipitationIn,Events,Conditions,WindDirDegrees,DateUTC
12:53 AM,37.0,35.1,93,30.22,10.0,Calm,Calm,-,N/A,,Clear,0,2012-12-31 08:53:00
1:53 AM,37.0,34.0,89,30.24,10.0,Calm,Calm,-,N/A,,Clear,0,2012-12-31 09:53:00
2:53 AM,35.1,33.1,92,30.26,10.0,Calm,Calm,-,N/A,,Clear,0,2012-12-31 10:53:00
4:53 AM,35.1,32.0,89,30.26,10.0,Calm,Calm,-,N/A,,Clear,0,2012-12-31 12:53:00
5:53 AM,35.1,32.0,89,30.26,10.0,East,8.1,-,N/A,,Clear,100,2012-12-31 13:53:00
6:53 AM,34.0,32.0,92,30.27,10.0,ESE,5.8,-,N/A,,Clear,120,2012-12-31 14:53:00
7:53 AM,34.0,32.0,92,30.29,10.0,East,5.8,-,N/A,,Clear,100,2012-12-31 15:53:00
8:53 AM,37.0,34.0,89,30.31,10.0,ESE,9.2,-,N/A,,Clear,110,2012-12-31 16:53:00
9:53 AM,41.0,36.0,82,30.33,10.0,ESE,5.8,-,N/A,,Clear,110,2012-12-31 17:53:00
10:53 AM,44.1,37.9,79,30.33,10.0,ESE,6.9,-,N/A,,Clear,120,2012-12-31 18:53:00
11:53 AM,48.9,37.9,66,30.29,10.0,SE,5.8,-,N/A,,Clear,140,2012-12-31 19:53:00
12:53 PM,52.0,37.0,57,30.27,10.0,Calm,Calm,-,N/A,,Clear,0,2012-12-31 20:53:00
1:53 PM,53.1,30.9,43,30.27,10.0,Calm,Calm,-,N/A,,Clear,0,2012-12-31 21:53:00
2:53 PM,54.0,30.0,40,30.26,10.0,Variable,3.5,-,N/A,,Clear,0,2012-12-31 22:53:00
3:53 PM,52.0,32.0,47,30.27,10.0,West,8.1,-,N/A,,Clear,270,2012-12-31 23:53:00
4:53 PM,50.0,32.0,50,30.28,10.0,West,5.8,-,N/A,,Clear,280,2013-01-01 00:53:00
5:53 PM,46.9,34.0,61,30.29,10.0,WSW,3.5,-,N/A,,Clear,240,2013-01-01 01:53:00
7:53 PM,43.0,35.1,74,30.30,10.0,West,4.6,-,N/A,,Clear,270,2013-01-01 03:53:00
8:53 PM,42.1,37.0,82,30.30,9.0,East,4.6,-,N/A,,Scattered Clouds,100,2013-01-01 04:53:00
9:53 PM,42.1,37.0,82,30.30,10.0,SE,5.8,-,N/A,,Overcast,130,2013-01-01 05:53:00
11:53 PM,41.0,36.0,82,30.28,10.0,SE,5.8,-,N/A,,Partly Cloudy,130,2013-01-01 07:53:00